Regional Weather Roundup
Issued by NWS

Home | Current Version | Previous Version | Text Only | Print | Product List | Glossary Off
Versions: 1 2 3 4 5 6 7 8 9 10 11 12 13 14 15 16 17 18 19 20 21 22 23 24 25 26 27 28 29 30 31 32 33 34 35 36 37 38 39 40 41 42 43 44 45 46 47 48 49 50

000
ASUS43 KIND 241159
RWRIN

WEATHER ROUNDUP FOR INDIANA
NATIONAL WEATHER SERVICE INDIANAPOLIS IN
700 AM EST MON NOV 24 2014

NOTE: "FAIR" INDICATES FEW OR NO CLOUDS BELOW 12,000 FEET WITH NO
SIGNIFICANT WEATHER AND/OR OBSTRUCTIONS TO VISIBILITY.

* - STATION DOES NOT REPORT WEATHER SUCH AS PRECIPITATION OR FOG.

+ - STATION NOT QUALITY CONTROLLED BY THE NATIONAL WEATHER SERVICE.
    USE DATA WITH CAUTION...ESPECIALLY DEWPOINT AND RELATIVE
    HUMIDITY OBSERVATIONS.

INZ001>003-010>013-019-020-241300-
NORTHWEST INDIANA

CITY           SKY/WX    TMP DP  RH WIND       PRES   REMARKS
GARY /AIRPORT/ CLOUDY    50  50 100 SW6       29.09S
VALPARAISO     NOT AVBL

$$

LMZ046-743>745-241300-
SOUTHERN LAKE MICHIGAN

STATION/POSITION TIME  TEMP WIND        PRES
                       AIR  DIR/SP/G
                 (UTC) (F)  (DEG/KT/KT) (MB)
MICHIGAN CITY    1100   49  170/ 10/ 13   N/A

$$

INZ004-005-014>016-021>024-241300-
NORTH CENTRAL INDIANA

CITY           SKY/WX    TMP DP  RH WIND       PRES   REMARKS
GOSHEN         LGT RAIN  65  51  60 S10       29.11F
6HR MIN TEMP:  53; 6HR MAX TEMP:  71; 6HR PCP:  0.15;

PERU/GRISSOM   LGT RAIN  54  54 100 S16       29.12F
SOUTH BEND     LGT RAIN  51  50  96 S9        29.11F FOG
6HR MIN TEMP:  50; 6HR MAX TEMP:  52; 6HR PCP:  0.19;


$$

INZ006>009-017-018-025>027-241300-
NORTHEAST INDIANA

CITY           SKY/WX    TMP DP  RH WIND       PRES   REMARKS
ANGOLA *+      CLOUDY    54  43  66 SW13      29.13S
FORT WAYNE     RAIN      55  52  89 S22G30    29.16F
6HR MIN TEMP:  54; 6HR MAX TEMP:  56; 6HR PCP:  0.20;


$$

INZ028-029-035-036-043>045-051>053-241300-
WEST CENTRAL INDIANA

CITY           SKY/WX    TMP DP  RH WIND       PRES   REMARKS
GREENCASTLE +  LGT RAIN  54  52  94 SW13G24   29.17S
LAFAYETTE      CLOUDY    54  52  93 S13G20    29.11F
6HR MIN TEMP:  51; 6HR MAX TEMP:  54; 6HR PCP:  0.05;

TERRE HAUTE    LGT RAIN  56  51  84 SW23G33   29.19R
6HR MIN TEMP:  54; 6HR MAX TEMP:  57; 6HR PCP:  0.22;


$$

INZ030>032-037>040-046>048-054>057-064-065-241300-
CENTRAL INDIANA

CITY           SKY/WX    TMP DP  RH WIND       PRES   REMARKS
COLUMBUS       LGT RAIN  57  55  94 MISG      29.21
INDIANAPOLIS   RAIN      54  52  93 SW30G41   29.17S FOG
6HR MIN TEMP:  53; 6HR MAX TEMP:  55; 6HR PCP:  0.13;

-EAGLE CREEK   RAIN      56  53  90 S18G29    29.18R FOG
6HR MIN TEMP:  54; 6HR MAX TEMP:  58; 6HR PCP:  0.19;

KOKOMO *+      CLOUDY    54  50  87 SW20G29   29.15S
MT COMFORT *+  CLOUDY    55  55 100 S23G32    29.19F
SHELBYVILLE    TSTM      54  50  86 SW32G53   29.21S VSB 1
6HR MIN TEMP:  54; 6HR MAX TEMP:  59; 6HR PCP:  0.66;


$$

INZ033-034-041-042-049-050-058-059-241300-
EAST CENTRAL INDIANA

CITY           SKY/WX    TMP DP  RH WIND       PRES   REMARKS
MUNCIE         MOCLDY    58  54  86 S15G23    29.18F
6HR MIN TEMP:  56; 6HR MAX TEMP:  59; 6HR PCP:  0.06;


$$

INZ060-061-067>069-081>083-085>088-241300-
SOUTHWEST INDIANA

CITY           SKY/WX    TMP DP  RH WIND       PRES   REMARKS
EVANSVILLE     HVY RAIN  56  52  86 W28G39    29.33R FOG
6HR MIN TEMP:  56; 6HR MAX TEMP:  62; 6HR PCP:  0.28;

HUNTINGBURG *+ MOCLDY    57  52  82 SW23G30   29.29R THUNDER
6HR MIN TEMP:  57; 6HR MAX TEMP:  61; 6HR PCP:  0.07;


$$

INZ062-063-066-070>080-084-089>092-241300-
SOUTH CENTRAL AND SOUTHEAST INDIANA

CITY           SKY/WX    TMP DP  RH WIND       PRES   REMARKS
BLOOMINGTON    MOCLDY    55  52  89 SW16G24   29.22R
6HR MIN TEMP:  55; 6HR MAX TEMP:  59; 6HR PCP:  0.19;


$$




USA.gov is the U.S. government's official web portal to all federal, state and local government web resources and services.